Dobrodošli na spletni strani vremenske postaje Senovo. Vse informacije so informativnega značaja, saj vremenska postaja ni del državne mreže meteoroloških postaj. AKTUALNIH OBVESTIL NI.


Posebna pozornost v zvezi z vremenskimi dogajanji ni potrebna.    Posebna pozornost v zvezi z vremenskimi dogajanji ni potrebna.

Pogled proti Armezu več informacij Pogled proti Armezu


Bohor več informacij Bohor


Radar strel več informacij blitzortung!


Radar padavin več informacij rain snow radar


Obiščite še:

Template documentation
and downloads

And another site



Weather Underground, zgodovina - Tekstovno

Dnevni povzetek za Januar 26, 2017 Enote:  Metrično    Angleško   Obe
« Predhodni Dan
Naslednji Dan »
Dnevni Tedenski Mesečni Letni Po meri
  Višja: Nižja: Povprečje:
Temperatura: -17.8 °C -19.4 °C -18.7 °C
Točka rosišča: -17.8 °C -21.4 °C -20.9 °C
Vlažnost: Humidity % 65 % 73 %
Hitrost vetra: 0 km/h 0 km/h 5 km/h
Sunki vetra: 0 km/h - -
Veter:- - SE
Zračni tlak: 0 hPa 34841.9 hPa -
Padavine: 0 mm    
Historical Graphs
 
 
Tabelarni podarki za Januar 26, 2017
Čas Temperatura Točka rosišča Zračni tlak Veter Hitrost vetra Sunki vetra Vlažnost Intenziteta padavin (urna)
-17.8 °C -17.8 °C 0 hPa Calm     Humidity % 0 mm
00:01 -19.4 °C -21.2 °C 34875.8 hPa Calm     79 % 0 mm
00:06 -19.4 °C -21.1 °C 34875.8 hPa Calm     80 % 0 mm
00:11 -19.4 °C -21.1 °C 34875.8 hPa NNE 0.5 km/h 5.1 km/h 80 % 0 mm
00:16 -19.4 °C -21.1 °C 34875.8 hPa NNE 1 km/h 5.1 km/h 80 % 0 mm
00:21 -19.4 °C -21.1 °C 34875.8 hPa NNE 0.5 km/h 4.2 km/h 80 % 0 mm
00:26 -19.4 °C -21.1 °C 34875.8 hPa Calm     80 % 0 mm
00:31 -19.4 °C -21.1 °C 34875.8 hPa Calm     80 % 0 mm
00:36 -19.4 °C -21.1 °C 34875.8 hPa Calm     80 % 0 mm
00:41 -19.4 °C -21.1 °C 34875.8 hPa Calm     80 % 0 mm
00:46 -19.4 °C -21.1 °C 34875.8 hPa Calm     80 % 0 mm
00:51 -19.4 °C -21.1 °C 34875.8 hPa Calm     80 % 0 mm
00:56 -19.4 °C -21.1 °C 34841.9 hPa Calm     80 % 0 mm
01:01 -19.4 °C -21.1 °C 34841.9 hPa Calm     80 % 0 mm
01:06 -19.4 °C -21.1 °C 34841.9 hPa SSE 0.3 km/h 4.2 km/h 80 % 0 mm
01:12 -19.4 °C -21.1 °C 34875.8 hPa SSE 0.3 km/h 4.2 km/h 80 % 0 mm
01:17 -19.4 °C -21.1 °C 34875.8 hPa Calm     80 % 0 mm
01:22 -19.4 °C -21.1 °C 34875.8 hPa Calm     80 % 0 mm
01:27 -19.4 °C -21.2 °C 34841.9 hPa Calm     79 % 0 mm
01:32 -19.4 °C -21.2 °C 34841.9 hPa SSE 1 km/h 5.6 km/h 79 % 0 mm
01:37 -19.4 °C -21.2 °C 34841.9 hPa SSE 1 km/h 5.6 km/h 79 % 0 mm
01:42 -19.4 °C -21.2 °C 34875.8 hPa Calm     79 % 0 mm
01:47 -19.3 °C -21.1 °C 34875.8 hPa NE 0.8 km/h 8.9 km/h 79 % 0 mm
01:52 -19.3 °C -21.1 °C 34875.8 hPa ENE 1.6 km/h 8.9 km/h 79 % 0 mm
01:57 -19.3 °C -21.1 °C 34875.8 hPa ESE 1.6 km/h 5.6 km/h 79 % 0 mm
02:02 -19.3 °C -21.1 °C 34875.8 hPa ESE 3.4 km/h 11.1 km/h 79 % 0 mm
02:07 -19.3 °C -21 °C 34875.8 hPa ESE 3.7 km/h 11.1 km/h 79 % 0 mm
02:12 -19.3 °C -21.1 °C 34875.8 hPa ENE 1.6 km/h 14 km/h 78 % 0 mm
02:17 -19.2 °C -21 °C 34875.8 hPa ENE 4.3 km/h 14 km/h 78 % 0 mm
02:22 -19.1 °C -21.1 °C 34875.8 hPa East 7.2 km/h 14 km/h 77 % 0 mm
02:27 -19.1 °C -21.1 °C 34875.8 hPa East 5 km/h 10.3 km/h 77 % 0 mm
02:32 -19.1 °C -21 °C 34875.8 hPa East 5 km/h 16.9 km/h 77 % 0 mm
02:37 -19.1 °C -21.1 °C 34875.8 hPa East 8.2 km/h 16.9 km/h 76 % 0 mm
02:42 -19.1 °C -21.1 °C 34875.8 hPa East 7.7 km/h 15 km/h 76 % 0 mm
02:47 -19.1 °C -21.1 °C 34875.8 hPa SE 4.3 km/h 12.2 km/h 76 % 0 mm
02:52 -19.1 °C -21.1 °C 34875.8 hPa SE 3.9 km/h 12.2 km/h 76 % 0 mm
02:57 -19.1 °C -21.1 °C 34875.8 hPa SE 2.6 km/h 8 km/h 76 % 0 mm
03:02 -19.1 °C -21.1 °C 34875.8 hPa SSE 2.9 km/h 7.6 km/h 76 % 0 mm
03:07 -19.1 °C -21.2 °C 34875.8 hPa SSE 3.4 km/h 7.6 km/h 75 % 0 mm
03:12 -19.1 °C -21.2 °C 34841.9 hPa SSE 4.3 km/h 8.9 km/h 75 % 0 mm
03:17 -19.1 °C -21.2 °C 34841.9 hPa South 3.1 km/h 8.9 km/h 75 % 0 mm
03:22 -19.1 °C -21.2 °C 34841.9 hPa SSW 2.6 km/h 7.6 km/h 76 % 0 mm
03:27 -19.1 °C -21.2 °C 34841.9 hPa South 3.9 km/h 7.6 km/h 76 % 0 mm
03:32 -19.1 °C -21.2 °C 34841.9 hPa SSE 5 km/h 9.3 km/h 76 % 0 mm
03:37 -19.1 °C -21.2 °C 34841.9 hPa South 6.4 km/h 9.3 km/h 76 % 0 mm
03:42 -19.2 °C -21.2 °C 34841.9 hPa SSW 4.2 km/h 9.3 km/h 76 % 0 mm
03:47 -19.2 °C -21.2 °C 34841.9 hPa WNW 1.3 km/h 6.4 km/h 76 % 0 mm
03:52 -19.2 °C -21.2 °C 34841.9 hPa WSW 0.8 km/h 6.4 km/h 76 % 0 mm
03:57 -19.2 °C -21.2 °C 34841.9 hPa West 1.6 km/h 6.9 km/h 76 % 0 mm
04:02 -19.2 °C -21.2 °C 34841.9 hPa West 1 km/h 6.9 km/h 76 % 0 mm
04:08 -19.2 °C -21.2 °C 34841.9 hPa East 2.9 km/h 10.3 km/h 76 % 0 mm
04:13 -19.2 °C -21.2 °C 34841.9 hPa ENE 5.5 km/h 10.3 km/h 76 % 0 mm
04:18 -19.2 °C -21.2 °C 34841.9 hPa East 4.7 km/h 14.5 km/h 76 % 0 mm
04:23 -19.1 °C -21.2 °C 34841.9 hPa East 3.9 km/h 14.5 km/h 76 % 0 mm
04:28 -19.1 °C -21.2 °C 34875.8 hPa East 5.6 km/h 12.7 km/h 75 % 0 mm
04:33 -19 °C -21.2 °C 34875.8 hPa East 7.2 km/h 12.7 km/h 75 % 0 mm
04:38 -19 °C -21.2 °C 34875.8 hPa East 5 km/h 9.8 km/h 75 % 0 mm
04:43 -18.9 °C -21.2 °C 34875.8 hPa East 5 km/h 10.3 km/h 74 % 0 mm
04:48 -18.9 °C -21.2 °C 34875.8 hPa ESE 3.4 km/h 10.3 km/h 74 % 0 mm
04:53 -18.9 °C -21.2 °C 34875.8 hPa ENE 0.5 km/h 14 km/h 74 % 0 mm
04:58 -18.9 °C -21.2 °C 34875.8 hPa ENE 4.2 km/h 15.6 km/h 74 % 0 mm
05:03 -18.9 °C -21.3 °C 34875.8 hPa East 7.6 km/h 15.6 km/h 73 % 0 mm
05:08 -18.9 °C -21.2 °C 34875.8 hPa East 8.9 km/h 19.6 km/h 73 % 0 mm
05:13 -18.9 °C -21.2 °C 34875.8 hPa East 10.1 km/h 19.6 km/h 73 % 0 mm
05:18 -18.8 °C -21.3 °C 34875.8 hPa ENE 9.8 km/h 18.7 km/h 71 % 0 mm
05:23 -18.8 °C -21.3 °C 34875.8 hPa ENE 8.5 km/h 19.6 km/h 71 % 0 mm
05:28 -18.8 °C -21.3 °C 34875.8 hPa East 8.2 km/h 19.6 km/h 71 % 0 mm
05:33 -18.9 °C -21.3 °C 34875.8 hPa East 8.9 km/h 16.9 km/h 72 % 0 mm
05:38 -18.9 °C -21.3 °C 34875.8 hPa ESE 8.2 km/h 16.9 km/h 72 % 0 mm
05:43 -18.9 °C -21.3 °C 34875.8 hPa SE 5 km/h 10.3 km/h 72 % 0 mm
05:48 -18.9 °C -21.4 °C 34875.8 hPa SE 1.6 km/h 6.9 km/h 72 % 0 mm
05:53 -19 °C -21.3 °C 34875.8 hPa ESE 0.5 km/h 8.9 km/h 73 % 0 mm
05:58 -19 °C -21.3 °C 34875.8 hPa ESE 3.9 km/h 15 km/h 73 % 0 mm
06:03 -19 °C -21.3 °C 34875.8 hPa ESE 6.3 km/h 15 km/h 73 % 0 mm
06:08 -19 °C -21.3 °C 34875.8 hPa ESE 2.6 km/h 11.1 km/h 73 % 0 mm
06:13 -19 °C -21.3 °C 34875.8 hPa ESE 1.6 km/h 7.6 km/h 73 % 0 mm
06:18 -19 °C -21.3 °C 34875.8 hPa ESE 2.3 km/h 7.6 km/h 73 % 0 mm
06:23 -19.1 °C -21.4 °C 34875.8 hPa ESE 1.6 km/h 6.4 km/h 73 % 0 mm
06:28 -19.1 °C -21.4 °C 34875.8 hPa East 3.7 km/h 11.1 km/h 73 % 0 mm
06:34 -19.1 °C -21.4 °C 34875.8 hPa East 6 km/h 11.1 km/h 73 % 0 mm
06:39 -19.1 °C -21.4 °C 34875.8 hPa ESE 4.7 km/h 11.1 km/h 73 % 0 mm
06:44 -19.1 °C -21.4 °C 34875.8 hPa SE 2.1 km/h 10.3 km/h 73 % 0 mm
06:49 -19.1 °C -21.4 °C 34875.8 hPa East 0.5 km/h 5.1 km/h 73 % 0 mm
06:54 -19.1 °C -21.4 °C 34875.8 hPa ESE 2.6 km/h 9.3 km/h 73 % 0 mm
06:59 -19.1 °C -21.4 °C 34875.8 hPa ESE 6.8 km/h 16.3 km/h 73 % 0 mm
07:04 -19.1 °C -21.4 °C 34875.8 hPa ESE 10.1 km/h 16.3 km/h 73 % 0 mm
07:09 -19.1 °C -21.4 °C 34875.8 hPa ESE 11.6 km/h 20.3 km/h 73 % 0 mm
07:14 -19 °C -21.3 °C 34875.8 hPa ESE 11.6 km/h 20.9 km/h 73 % 0 mm
07:19 -19 °C -21.3 °C 34875.8 hPa ESE 12.7 km/h 22.5 km/h 73 % 0 mm
07:24 -19 °C -21.3 °C 34875.8 hPa ESE 12.7 km/h 22.5 km/h 73 % 0 mm
07:29 -19 °C -21.3 °C 34875.8 hPa ESE 10.9 km/h 20.9 km/h 73 % 0 mm
07:34 -19 °C -21.3 °C 34875.8 hPa ESE 9.7 km/h 14 km/h 73 % 0 mm
07:39 -19 °C -21.3 °C 34909.7 hPa ESE 9.3 km/h 14.5 km/h 73 % 0 mm
07:44 -19 °C -21.3 °C 34909.7 hPa ESE 11.6 km/h 22 km/h 73 % 0 mm
07:49 -19 °C -21.3 °C 34909.7 hPa ESE 12.7 km/h 22 km/h 73 % 0 mm
07:54 -19 °C -21.2 °C 34909.7 hPa ESE 11.9 km/h 19.6 km/h 74 % 0 mm
07:59 -19 °C -21.3 °C 34909.7 hPa ESE 13.5 km/h 22 km/h 73 % 0 mm
08:04 -19 °C -21.2 °C 34909.7 hPa ESE 13.7 km/h 22 km/h 74 % 0 mm
08:09 -19 °C -21.2 °C 34946.9 hPa ESE 11.6 km/h 19.2 km/h 74 % 0 mm
08:14 -19 °C -21.2 °C 34946.9 hPa ESE 10.6 km/h 18.7 km/h 74 % 0 mm
08:19 -19 °C -21.2 °C 34946.9 hPa ESE 11.6 km/h 24.8 km/h 74 % 0 mm
08:24 -19 °C -21.2 °C 34909.7 hPa ESE 10.1 km/h 24.8 km/h 74 % 0 mm
08:29 -19 °C -21.2 °C 34909.7 hPa ESE 6.3 km/h 15 km/h 74 % 0 mm
08:34 -19 °C -21.2 °C 34909.7 hPa ESE 8.2 km/h 16.9 km/h 74 % 0 mm
08:39 -19 °C -21.2 °C 34946.9 hPa ESE 10.6 km/h 16.9 km/h 74 % 0 mm
08:44 -18.9 °C -21.2 °C 34946.9 hPa ESE 9.3 km/h 15.6 km/h 74 % 0 mm
08:49 -18.9 °C -21.2 °C 34946.9 hPa ESE 10.3 km/h 19.2 km/h 74 % 0 mm
08:54 -18.9 °C -21.2 °C 34946.9 hPa ESE 12.2 km/h 19.2 km/h 74 % 0 mm
09:00 -18.9 °C -21 °C 34946.9 hPa ESE 11.6 km/h 22.5 km/h 75 % 0 mm
09:05 -18.9 °C -21 °C 34946.9 hPa ESE 10.3 km/h 22.5 km/h 75 % 0 mm
09:10 -18.9 °C -21 °C 34946.9 hPa ESE 11.1 km/h 20.9 km/h 75 % 0 mm
09:15 -18.8 °C -21.1 °C 34946.9 hPa ESE 13.2 km/h 20.9 km/h 74 % 0 mm
09:20 -18.8 °C -21.1 °C 34946.9 hPa ESE 13.2 km/h 19.6 km/h 74 % 0 mm
09:25 -18.8 °C -21 °C 34946.9 hPa ESE 12.4 km/h 19.6 km/h 74 % 0 mm
09:30 -18.8 °C -21 °C 34946.9 hPa ESE 11.6 km/h 18.7 km/h 74 % 0 mm
09:35 -18.7 °C -20.9 °C 34946.9 hPa ESE 9.8 km/h 24.3 km/h 74 % 0 mm
09:40 -18.7 °C -20.9 °C 34946.9 hPa ESE 7.6 km/h 24.3 km/h 74 % 0 mm
09:45 -18.7 °C -20.9 °C 34946.9 hPa ESE 6.9 km/h 14.5 km/h 74 % 0 mm
09:50 -18.6 °C -20.9 °C 34946.9 hPa ESE 7.6 km/h 14.5 km/h 74 % 0 mm
09:55 -18.6 °C -20.8 °C 34946.9 hPa ESE 6.8 km/h 11.6 km/h 74 % 0 mm
10:00 -18.6 °C -20.9 °C 34946.9 hPa SE 8.2 km/h 19.6 km/h 73 % 0 mm
10:05 -18.5 °C -20.8 °C 34946.9 hPa SE 9 km/h 19.6 km/h 73 % 0 mm
10:10 -18.4 °C -20.8 °C 34946.9 hPa ESE 8 km/h 14 km/h 73 % 0 mm
10:15 -18.4 °C -20.7 °C 34946.9 hPa ESE 8 km/h 16.3 km/h 73 % 0 mm
10:20 -18.3 °C -20.7 °C 34946.9 hPa ESE 8.2 km/h 16.3 km/h 73 % 0 mm
10:25 -18.3 °C -20.7 °C 34909.7 hPa ESE 8.2 km/h 15 km/h 73 % 0 mm
10:30 -18.3 °C -20.7 °C 34909.7 hPa SE 8.2 km/h 15.6 km/h 72 % 0 mm
10:35 -18.3 °C -20.7 °C 34909.7 hPa SE 8.5 km/h 15.6 km/h 72 % 0 mm
10:40 -18.2 °C -20.7 °C 34946.9 hPa ESE 8.9 km/h 14 km/h 72 % 0 mm
10:45 -18.2 °C -20.7 °C 34946.9 hPa ESE 10.1 km/h 15.6 km/h 71 % 0 mm
10:50 -18.2 °C -20.7 °C 34946.9 hPa ESE 10.9 km/h 15.6 km/h 71 % 0 mm
10:51 -18.1 °C -20.7 °C 34946.9 hPa ESE 10.6 km/h 15.6 km/h 71 % 0 mm
10:56 -18.1 °C -20.7 °C 34946.9 hPa ESE 10.1 km/h 15 km/h 71 % 0 mm
11:01 -18.1 °C -20.6 °C 34946.9 hPa ESE 10.3 km/h 20.3 km/h 71 % 0 mm
11:06 -18.1 °C -20.7 °C 34946.9 hPa ESE 10.9 km/h 20.3 km/h 70 % 0 mm
11:11 -18 °C -20.7 °C 34909.7 hPa ESE 11.1 km/h 25.4 km/h 70 % 0 mm
11:16 -18 °C -20.7 °C 34909.7 hPa ESE 10.9 km/h 25.4 km/h 70 % 0 mm
11:21 -17.9 °C -20.6 °C 34909.7 hPa ESE 9.8 km/h 19.2 km/h 70 % 0 mm
11:26 -17.9 °C -20.7 °C 34909.7 hPa ESE 10.1 km/h 16.9 km/h 69 % 0 mm
11:31 -17.9 °C -20.7 °C 34909.7 hPa ESE 10.1 km/h 19.2 km/h 69 % 0 mm
11:36 -17.9 °C -20.7 °C 34909.7 hPa ESE 9 km/h 19.2 km/h 69 % 0 mm
11:41 -17.8 °C -20.6 °C 34946.9 hPa ESE 9.3 km/h 15 km/h 69 % 0 mm
11:46 -17.8 °C -20.6 °C 34946.9 hPa ESE 9.8 km/h 15 km/h 69 % 0 mm
11:51 -17.8 °C -20.7 °C 34946.9 hPa ESE 9 km/h 14 km/h 68 % 0 mm
11:56 -17.7 °C -20.6 °C 34909.7 hPa ESE 8.9 km/h 15.6 km/h 68 % 0 mm
12:01 -17.7 °C -20.6 °C 34909.7 hPa ESE 9 km/h 19.2 km/h 68 % 0 mm
12:06 -17.7 °C -20.6 °C 34909.7 hPa ESE 9.7 km/h 19.2 km/h 68 % 0 mm
12:11 -17.7 °C -20.6 °C 34946.9 hPa ESE 10.6 km/h 16.9 km/h 68 % 0 mm
12:16 -17.6 °C -20.5 °C 34946.9 hPa ESE 10.1 km/h 16.9 km/h 68 % 0 mm
12:21 -17.6 °C -20.5 °C 34946.9 hPa ESE 9.8 km/h 15.6 km/h 68 % 0 mm
12:26 -17.6 °C -20.5 °C 34946.9 hPa ESE 10.6 km/h 16.9 km/h 68 % 0 mm
12:31 -17.6 °C -20.6 °C 34946.9 hPa ESE 10.6 km/h 16.9 km/h 67 % 0 mm
12:36 -17.6 °C -20.6 °C 34946.9 hPa ESE 9 km/h 15.6 km/h 67 % 0 mm
12:38 -17.6 °C -20.6 °C 34946.9 hPa ESE 8.5 km/h 15.6 km/h 67 % 0 mm
12:43 -17.6 °C -20.6 °C 34909.7 hPa ESE 9.7 km/h 15.6 km/h 67 % 0 mm
12:48 -17.6 °C -20.6 °C 34909.7 hPa ESE 10.6 km/h 15.6 km/h 67 % 0 mm
12:53 -17.6 °C -20.6 °C 34909.7 hPa ESE 9.8 km/h 15.6 km/h 67 % 0 mm
12:58 -17.6 °C -20.6 °C 34946.9 hPa ESE 9.3 km/h 15.6 km/h 67 % 0 mm
13:03 -17.6 °C -20.6 °C 34946.9 hPa ESE 8.9 km/h 14 km/h 67 % 0 mm
13:08 -17.6 °C -20.7 °C 34946.9 hPa ESE 9 km/h 16.9 km/h 66 % 0 mm
13:13 -17.6 °C -20.6 °C 34946.9 hPa ESE 10.3 km/h 16.9 km/h 67 % 0 mm
13:18 -17.6 °C -20.7 °C 34946.9 hPa ESE 10.9 km/h 18.7 km/h 66 % 0 mm
13:23 -17.6 °C -20.7 °C 34946.9 hPa ESE 11.1 km/h 18.7 km/h 66 % 0 mm
13:28 -17.6 °C -20.7 °C 34946.9 hPa ESE 11.4 km/h 16.9 km/h 66 % 0 mm
13:33 -17.6 °C -20.7 °C 34946.9 hPa ESE 10.6 km/h 15.6 km/h 66 % 0 mm
13:38 -17.6 °C -20.7 °C 34909.7 hPa ESE 10.6 km/h 15.6 km/h 66 % 0 mm
13:43 -17.6 °C -20.7 °C 34909.7 hPa ESE 9 km/h 15 km/h 66 % 0 mm
13:49 -17.6 °C -20.7 °C 34909.7 hPa ESE 8.9 km/h 14.5 km/h 66 % 0 mm
13:54 -17.6 °C -20.7 °C 34946.9 hPa ESE 9 km/h 14.5 km/h 66 % 0 mm
13:59 -17.7 °C -20.9 °C 34946.9 hPa ESE 7.6 km/h 15 km/h 65 % 0 mm
14:04 -17.7 °C -20.8 °C 34946.9 hPa ESE 8.2 km/h 15 km/h 66 % 0 mm
14:09 -17.7 °C -20.9 °C 34946.9 hPa ESE 9.3 km/h 15 km/h 65 % 0 mm
14:14 -17.7 °C -20.9 °C 34946.9 hPa ESE 9 km/h 12.7 km/h 65 % 0 mm
14:19 -17.7 °C -20.9 °C 34946.9 hPa ESE 8.5 km/h 14 km/h 65 % 0 mm
14:24 -17.7 °C -20.8 °C 34946.9 hPa ESE 8.5 km/h 15 km/h 66 % 0 mm
14:29 -17.7 °C -20.8 °C 34946.9 hPa ESE 9.7 km/h 16.3 km/h 66 % 0 mm
14:34 -17.7 °C -20.8 °C 34946.9 hPa ESE 9.8 km/h 16.3 km/h 66 % 0 mm
14:39 -17.7 °C -20.8 °C 34909.7 hPa ESE 9.7 km/h 14.5 km/h 66 % 0 mm
14:44 -17.7 °C -20.8 °C 34909.7 hPa ESE 9.8 km/h 14.5 km/h 66 % 0 mm
14:49 -17.7 °C -20.8 °C 34909.7 hPa ESE 9.3 km/h 14.5 km/h 66 % 0 mm
14:54 -17.7 °C -20.8 °C 34946.9 hPa ESE 8.9 km/h 16.3 km/h 66 % 0 mm
14:59 -17.7 °C -20.8 °C 34946.9 hPa ESE 8.9 km/h 16.3 km/h 66 % 0 mm
15:04 -17.7 °C -20.8 °C 34946.9 hPa ESE 8.2 km/h 15.6 km/h 66 % 0 mm
15:09 -17.7 °C -20.8 °C 34909.7 hPa ESE 6.8 km/h 15.6 km/h 66 % 0 mm
15:14 -17.7 °C -20.8 °C 34909.7 hPa ESE 7.2 km/h 15 km/h 66 % 0 mm
15:19 -17.7 °C -20.8 °C 34909.7 hPa ESE 8.9 km/h 15 km/h 66 % 0 mm
15:24 -17.7 °C -20.8 °C 34946.9 hPa ESE 7.7 km/h 14.5 km/h 66 % 0 mm
15:29 -17.7 °C -20.8 °C 34946.9 hPa ESE 7.2 km/h 14 km/h 66 % 0 mm
15:34 -17.7 °C -20.8 °C 34946.9 hPa ESE 7.6 km/h 15.6 km/h 66 % 0 mm
15:39 -17.7 °C -20.8 °C 34909.7 hPa ESE 7.7 km/h 15.6 km/h 66 % 0 mm
15:44 -17.7 °C -20.8 °C 34909.7 hPa ESE 6.4 km/h 14 km/h 66 % 0 mm
15:49 -17.7 °C -20.8 °C 34909.7 hPa ESE 5.5 km/h 11.6 km/h 66 % 0 mm
15:54 -17.7 °C -20.8 °C 34946.9 hPa ESE 6 km/h 12.2 km/h 66 % 0 mm
16:00 -17.8 °C -20.9 °C 34946.9 hPa ESE 6.9 km/h 12.2 km/h 66 % 0 mm
16:05 -17.8 °C -20.9 °C 34946.9 hPa ESE 6.9 km/h 11.1 km/h 66 % 0 mm
16:10 -17.8 °C -20.9 °C 34946.9 hPa ESE 7.7 km/h 12.2 km/h 66 % 0 mm
16:15 -17.8 °C -20.9 °C 34946.9 hPa ESE 7.6 km/h 12.2 km/h 66 % 0 mm
16:20 -17.8 °C -20.9 °C 34946.9 hPa ESE 6.8 km/h 10.3 km/h 66 % 0 mm
16:25 -17.9 °C -21 °C 34909.7 hPa ESE 7.6 km/h 11.1 km/h 66 % 0 mm
16:30 -17.9 °C -20.9 °C 34909.7 hPa SE 6.8 km/h 15 km/h 67 % 0 mm
16:35 -18 °C -21 °C 34909.7 hPa SE 4.3 km/h 15 km/h 67 % 0 mm
16:40 -18.1 °C -21.1 °C 34909.7 hPa SSE 1.8 km/h 6.9 km/h 67 % 0 mm
16:45 -18.1 °C -21.1 °C 34909.7 hPa East 1.6 km/h 6.9 km/h 67 % 0 mm
16:50 -18.1 °C -21.1 °C 34909.7 hPa ESE 3.1 km/h 8.9 km/h 67 % 0 mm
16:55 -18.1 °C -21.1 °C 34909.7 hPa SE 3.4 km/h 8.9 km/h 67 % 0 mm
17:00 -18.2 °C -21.2 °C 34909.7 hPa SE 1.6 km/h 6.4 km/h 67 % 0 mm
17:05 -18.2 °C -21.1 °C 34909.7 hPa SE 0.3 km/h 6.4 km/h 68 % 0 mm
17:10 -18.2 °C -21.1 °C 34946.9 hPa SSE 1.6 km/h 6.9 km/h 68 % 0 mm
17:15 -18.3 °C -21.2 °C 34946.9 hPa SSE 1.3 km/h 6.9 km/h 68 % 0 mm
17:20 -18.3 °C -21.2 °C 34946.9 hPa Calm     68 % 0 mm
17:25 -18.3 °C -21.1 °C 34909.7 hPa ESE 0.8 km/h 6.4 km/h 69 % 0 mm
17:30 -18.3 °C -21.1 °C 34909.7 hPa ESE 0.8 km/h 6.4 km/h 69 % 0 mm
17:35 -18.4 °C -21.2 °C 34909.7 hPa Calm     69 % 0 mm
17:40 -18.4 °C -21.2 °C 34946.9 hPa Calm     69 % 0 mm
17:45 -18.4 °C -21.2 °C 34946.9 hPa SW 0.8 km/h 6.4 km/h 69 % 0 mm
17:50 -18.4 °C -21.1 °C 34946.9 hPa SSW 2.3 km/h 6.4 km/h 70 % 0 mm
17:55 -18.5 °C -21.1 °C 34946.9 hPa SSW 1.6 km/h 5.6 km/h 71 % 0 mm
18:00 -18.6 °C -21.1 °C 34946.9 hPa WSW 0.8 km/h 5.6 km/h 71 % 0 mm
18:05 -18.6 °C -21.1 °C 34946.9 hPa WSW 0.8 km/h 5.6 km/h 71 % 0 mm
18:10 -18.6 °C -21.1 °C 34946.9 hPa Calm     71 % 0 mm
18:15 -18.6 °C -21.1 °C 34946.9 hPa WSW 0.3 km/h 4.2 km/h 72 % 0 mm
18:20 -18.6 °C -21.1 °C 34946.9 hPa WSW 0.3 km/h 4.2 km/h 72 % 0 mm
18:25 -18.7 °C -21 °C 34946.9 hPa Calm     73 % 0 mm
18:30 -18.7 °C -21 °C 34946.9 hPa Calm     73 % 0 mm
18:35 -18.7 °C -21.1 °C 34946.9 hPa Calm     73 % 0 mm
18:40 -18.7 °C -21.1 °C 34946.9 hPa Calm     73 % 0 mm
18:45 -18.7 °C -21.1 °C 34946.9 hPa Calm     73 % 0 mm
18:50 -18.7 °C -21.1 °C 34946.9 hPa Calm     73 % 0 mm
18:55 -18.8 °C -21 °C 34980.8 hPa Calm     74 % 0 mm
19:00 -18.8 °C -21 °C 34980.8 hPa Calm     74 % 0 mm
19:05 -18.8 °C -21 °C 34980.8 hPa Calm     74 % 0 mm
19:10 -18.8 °C -21 °C 34946.9 hPa SSW 0.8 km/h 5.6 km/h 74 % 0 mm
19:15 -18.8 °C -21 °C 34946.9 hPa SSW 1.6 km/h 5.6 km/h 74 % 0 mm
19:20 -18.8 °C -21.1 °C 34946.9 hPa SSW 1 km/h 4.2 km/h 74 % 0 mm
19:25 -18.8 °C -20.9 °C 34980.8 hPa Calm     75 % 0 mm
19:30 -18.8 °C -20.9 °C 34980.8 hPa Calm     75 % 0 mm
19:35 -18.8 °C -20.9 °C 34980.8 hPa Calm     75 % 0 mm
19:40 -18.8 °C -20.9 °C 34946.9 hPa Calm     75 % 0 mm
19:45 -18.8 °C -20.9 °C 34946.9 hPa Calm     75 % 0 mm
19:50 -18.9 °C -20.9 °C 34946.9 hPa Calm     76 % 0 mm
19:55 -18.9 °C -20.9 °C 34946.9 hPa Calm     76 % 0 mm
20:00 -18.9 °C -20.9 °C 34946.9 hPa Calm     76 % 0 mm
20:05 -18.9 °C -20.9 °C 34946.9 hPa Calm   4.2 km/h 76 % 0 mm
20:10 -18.9 °C -20.8 °C 34980.8 hPa SSW 1 km/h 6.4 km/h 77 % 0 mm
20:15 -18.9 °C -20.8 °C 34980.8 hPa South 1 km/h 6.4 km/h 77 % 0 mm
20:20 -18.9 °C -20.8 °C 34980.8 hPa Calm   5.1 km/h 77 % 0 mm
20:26 -18.9 °C -20.9 °C 34946.9 hPa South 0.3 km/h 5.1 km/h 77 % 0 mm
20:31 -18.9 °C -20.9 °C 34946.9 hPa North 0.3 km/h   77 % 0 mm
20:36 -18.9 °C -20.9 °C 34946.9 hPa SSW 0.5 km/h 5.1 km/h 77 % 0 mm
20:41 -18.9 °C -20.9 °C 34980.8 hPa SSW 0.5 km/h 5.1 km/h 77 % 0 mm
20:46 -18.9 °C -20.9 °C 34980.8 hPa SSW 0.8 km/h 5.6 km/h 77 % 0 mm
20:51 -19 °C -20.8 °C 34980.8 hPa South 2.3 km/h 6.4 km/h 78 % 0 mm
20:56 -19 °C -20.8 °C 34946.9 hPa SE 1.8 km/h 6.4 km/h 78 % 0 mm
21:01 -19 °C -20.8 °C 34946.9 hPa ENE 0.8 km/h 5.1 km/h 78 % 0 mm
21:06 -19 °C -20.8 °C 34946.9 hPa ENE 0.5 km/h 2.9 km/h 78 % 0 mm
21:11 -19 °C -20.8 °C 34946.9 hPa Calm     78 % 0 mm
21:16 -19 °C -20.7 °C 34946.9 hPa South 1.8 km/h 7.6 km/h 79 % 0 mm
21:21 -19 °C -20.7 °C 34946.9 hPa South 2.9 km/h 7.6 km/h 79 % 0 mm
21:26 -19 °C -20.7 °C 34946.9 hPa South 1.8 km/h 6.4 km/h 79 % 0 mm
21:31 -19 °C -20.7 °C 34946.9 hPa NW 1 km/h 6.4 km/h 79 % 0 mm
21:36 -19.1 °C -20.8 °C 34946.9 hPa WSW 2.1 km/h 6.4 km/h 79 % 0 mm
21:41 -19.1 °C -20.8 °C 34946.9 hPa WSW 1.6 km/h 6.4 km/h 79 % 0 mm
21:46 -19.1 °C -20.8 °C 34946.9 hPa Calm     79 % 0 mm
21:51 -19.1 °C -20.8 °C 34946.9 hPa Calm     79 % 0 mm
21:56 -19.1 °C -20.8 °C 34946.9 hPa Calm     79 % 0 mm
21:57 -19.1 °C -20.8 °C 34946.9 hPa Calm     79 % 0 mm
22:02 -19.1 °C -20.8 °C 34946.9 hPa Calm     79 % 0 mm
22:07 -19.1 °C -20.8 °C 34946.9 hPa Calm     79 % 0 mm
22:18 -19.1 °C -20.9 °C 34980.8 hPa Calm     79 % 0 mm
22:23 -19.1 °C -20.9 °C 34980.8 hPa West 0.3 km/h 5.1 km/h 79 % 0 mm
22:28 -19.1 °C -20.9 °C 34980.8 hPa West 0.3 km/h 5.1 km/h 79 % 0 mm
22:33 -19.1 °C -20.9 °C 34980.8 hPa Calm     79 % 0 mm
22:38 -19.1 °C -20.9 °C 34980.8 hPa South 0.5 km/h 6.4 km/h 79 % 0 mm
22:43 -19.1 °C -20.8 °C 34980.8 hPa South 0.5 km/h 6.4 km/h 80 % 0 mm
22:48 -19.1 °C -20.8 °C 34980.8 hPa Calm     80 % 0 mm
22:53 -19.2 °C -20.8 °C 34980.8 hPa Calm     80 % 0 mm
22:58 -19.2 °C -20.8 °C 34980.8 hPa Calm     80 % 0 mm
23:03 -19.2 °C -20.8 °C 34980.8 hPa Calm     80 % 0 mm
23:08 -19.2 °C -20.8 °C 34980.8 hPa Calm     80 % 0 mm
23:13 -19.2 °C -20.8 °C 34980.8 hPa Calm     80 % 0 mm
23:18 -19.2 °C -20.8 °C 34980.8 hPa SSW 0.3 km/h 5.6 km/h 80 % 0 mm
23:23 -19.2 °C -20.8 °C 34980.8 hPa SSW 0.3 km/h 5.6 km/h 80 % 0 mm
23:28 -19.2 °C -20.9 °C 34980.8 hPa Calm     80 % 0 mm
23:33 -19.2 °C -20.9 °C 34980.8 hPa Calm     80 % 0 mm
23:38 -19.2 °C -20.9 °C 34980.8 hPa Calm     80 % 0 mm
23:43 -19.2 °C -20.9 °C 34980.8 hPa Calm     80 % 0 mm
23:48 -19.2 °C -20.9 °C 34980.8 hPa Calm     80 % 0 mm
23:54 -19.2 °C -20.8 °C 34980.8 hPa Calm     81 % 0 mm
23:58 -19.3 °C -20.8 °C 34980.8 hPa Calm     81 % 0 mm
Vremenska postaja Senovo
Podatki zbrani iz Weather Underground - 3 mb

Script developed by  Jim McMurry - jmcmurry@mwt.net Adapted for the template by  Wim van der Kuil - Leuven-Template.eu

Vremenski podatki so objavljeni na:

European Weather Network

WeatherCloud

Weather Underground

AWEKAS

HAMweather, WeatherForYou, PWS Weather

MapView

Geostik

Slovenia weather network

Oprema, ki se uporablja:

Vremenski program
Cumulus

Vremenski server
Asus

Cumulus

Asus